Wind_Speed
10 10 10 10 10 11 12 13 14 15 16 17 18 19 20 20 21 21 22 22 23 23 23 24 25 26 27 28 29 30 31 31 31 30 30 28 30 32 34 35 36 36 36 35 33 29 25 22 18 16 15 17 19 22 25 28 30 32 34 35 36 37 37 36 36 35 34 34 33 33 33 33 33 33 33 32 32 33 33 32 31 30 28 26 26 26
9 9 9 9 10 10 11 12 14 15 16 17 18 19 19 20 20 21 22 22 23 23 23 23 24 25 26 27 28 30 30 31 30 29 28 27 28 30 31 33 33 34 33 32 30 27 24 22 19 18 17 18 20 22 25 28 31 33 34 35 36 36 35 35 35 34 34 34 33 33 33 33 33 33 32 32 32 31 30 29 27 26 24 23 23 24
9 9 9 9 9 10 11 12 13 14 15 16 17 18 18 19 20 21 22 22 23 22 22 22 23 24 25 26 28 29 30 30 30 29 27 26 26 27 29 30 30 31 30 29 28 26 24 22 20 19 18 19 21 23 26 29 31 33 34 35 35 35 34 34 34 34 34 33 33 33 33 33 33 32 31 30 29 28 28 28 27 25 24 25 24 24
8 8 8 9 9 10 11 12 13 14 15 16 17 17 18 19 20 21 22 22 23 22 22 22 22 23 24 26 27 27 28 29 30 29 27 26 25 25 26 26 27 28 27 27 26 24 23 21 20 19 19 20 22 24 26 28 30 32 32 33 33 34 34 34 33 33 33 32 32 32 32 32 31 31 29 28 27 27 28 29 28 27 27 28 28 27
8 8 8 8 9 10 10 11 13 14 15 15 16 17 18 19 20 21 22 23 23 23 22 22 22 23 24 25 26 27 28 29 30 30 28 26 24 23 23 23 24 24 25 24 23 23 22 21 20 19 19 20 22 24 26 28 29 30 31 32 32 32 33 32 32 31 31 31 31 31 31 31 31 30 29 27 26 26 28 29 29 28 28 29 29 28
8 8 8 8 9 10 10 11 12 13 14 15 16 17 18 19 20 21 23 23 23 23 23 22 22 23 23 25 26 27 27 28 30 31 29 26 23 21 20 20 21 22 22 22 21 21 20 20 19 18 18 20 22 24 26 27 28 29 30 30 31 32 32 31 30 29 29 29 30 30 30 30 30 30 30 30 29 28 29 29 30 30 30 30 29 28
8 8 8 8 9 9 10 11 12 13 13 14 15 16 17 19 20 21 23 23 24 24 24 23 23 23 24 26 27 28 28 28 29 31 30 26 21 18 18 17 18 19 20 20 20 20 19 19 18 18 18 19 20 23 25 26 27 28 29 29 30 30 30 30 29 28 29 29 29 30 30 30 30 31 31 32 32 32 31 31 31 32 32 31 30 29
8 8 8 8 9 9 9 10 11 12 13 14 15 16 17 18 20 21 22 23 23 24 24 24 24 25 26 27 29 29 29 28 28 30 30 27 21 16 14 14 14 16 17 18 18 18 18 18 17 17 17 18 20 22 24 25 26 27 28 29 30 31 31 29 28 28 28 29 29 29 29 29 29 29 30 30 30 30 30 30 30 30 29 28 28 27
8 8 8 8 8 8 9 9 10 11 12 13 14 15 17 18 19 20 21 22 23 23 24 24 25 26 27 28 29 30 29 27 27 29 31 28 22 15 10 9 10 12 14 16 17 17 17 17 16 16 16 18 20 21 23 24 25 25 26 28 29 31 32 31 29 27 27 26 27 27 27 27 27 27 26 26 26 26 26 26 26 26 25 25 25 25
8 8 7 7 7 8 8 9 9 10 11 12 14 15 16 17 18 19 20 20 21 22 23 24 25 26 27 28 28 28 28 27 26 28 31 29 24 16 10 6 5 7 10 12 14 14 14 13 12 12 13 16 18 20 20 21 21 22 23 24 24 26 29 33 32 28 24 23 23 23 24 24 24 23 23 23 23 23 23 23 23 24 24 24 24 23
7 7 7 7 7 7 7 8 8 9 10 12 13 14 15 16 17 17 18 19 20 21 22 23 24 25 26 27 27 27 27 26 26 27 30 30 26 20 14 8 4 3 4 7 9 10 9 8 6 6 8 12 15 16 15 14 15 18 20 21 21 23 27 33 34 29 23 20 19 19 19 19 19 19 20 20 21 21 22 22 23 23 23 23 23 23
7 7 6 6 6 6 6 7 7 8 10 11 12 13 13 14 15 16 17 18 19 20 21 23 24 25 26 26 27 27 27 26 26 28 30 31 28 24 20 16 11 7 5 5 6 7 7 6 4 3 6 10 12 12 10 10 14 19 24 26 27 27 30 34 33 28 22 19 18 17 17 16 16 16 17 17 18 19 20 21 22 22 22 22 22 23
7 7 6 6 6 6 6 6 7 8 9 10 11 11 12 13 13 14 15 17 18 19 21 22 24 25 25 26 27 27 27 26 27 28 30 31 29 27 24 21 18 14 10 7 6 6 6 7 8 8 8 11 12 11 10 14 21 27 31 32 32 32 32 32 30 27 24 22 22 22 21 19 19 20 20 20 19 19 20 21 21 22 22 22 23 25
7 7 6 6 6 6 5 6 6 8 8 9 9 10 11 11 12 13 15 16 17 19 20 22 23 24 25 25 26 27 27 26 27 27 29 30 29 27 26 24 22 19 15 11 8 7 8 12 16 16 14 13 13 14 15 21 27 32 33 33 32 32 31 30 29 29 29 29 29 30 30 29 29 30 30 30 27 25 23 22 22 22 22 23 24 26
7 7 6 6 5 5 5 5 6 7 7 8 8 9 9 10 12 13 14 15 17 18 20 22 23 24 24 25 25 26 26 26 26 27 27 28 28 27 26 25 24 22 19 15 12 11 12 16 20 20 18 16 16 18 21 26 30 32 32 31 30 30 31 31 31 31 32 32 33 34 36 36 37 37 37 37 35 32 29 26 25 24 24 25 26 27
7 7 7 6 6 5 5 5 5 6 7 7 8 8 9 10 11 12 14 15 17 18 20 21 22 23 23 24 24 25 26 26 26 26 26 26 26 26 25 25 25 25 23 21 18 16 17 20 21 20 18 18 19 21 23 26 27 28 28 27 28 29 31 31 31 30 29 29 29 30 32 33 34 34 34 34 33 31 29 28 26 25 25 25 25 25
8 7 7 6 6 5 5 5 5 6 6 7 8 8 9 10 11 12 13 14 16 18 19 20 21 22 22 23 24 24 25 25 26 26 25 25 25 25 24 24 24 24 25 24 24 23 23 24 23 21 19 19 20 21 22 23 24 24 23 23 25 26 28 27 26 25 23 22 22 23 23 24 25 25 24 24 23 23 23 22 22 22 22 22 22 21
8 8 7 7 6 6 5 5 5 6 6 7 7 8 9 9 10 11 12 14 15 16 18 19 19 20 21 22 23 23 24 25 26 26 26 24 24 23 23 23 23 22 23 23 24 25 26 26 26 25 23 21 19 19 20 20 20 21 20 21 21 22 23 22 21 19 18 17 16 16 16 17 17 16 16 16 16 16 17 17 18 18 19 18 18 17
8 8 8 8 7 7 6 6 5 6 6 6 7 8 8 9 9 10 11 12 14 15 16 17 18 18 19 20 21 22 23 24 25 26 26 25 23 22 22 23 22 22 21 20 21 21 22 23 24 25 24 23 22 20 19 19 19 19 19 19 20 20 19 18 17 16 14 13 12 12 11 11 11 11 12 12 12 13 13 14 14 15 15 15 15 14
8 8 8 8 8 7 7 6 6 6 6 6 7 7 8 8 8 9 10 11 12 13 14 16 16 17 17 19 20 21 22 23 24 25 26 25 24 22 22 22 23 22 21 19 18 17 18 18 19 20 21 22 22 22 21 21 20 20 21 21 21 20 19 18 17 16 15 14 13 12 11 10 9 8 8 8 8 9 9 10 10 11 11 11 12 12
8 8 8 8 8 8 7 7 6 6 6 6 6 7 7 7 8 8 9 10 11 12 13 14 15 15 16 17 18 19 20 21 23 24 25 25 24 23 22 22 22 22 21 20 18 16 15 15 15 15 16 17 18 19 20 20 21 21 21 21 21 20 20 19 18 16 15 14 13 12 11 10 9 8 7 7 6 6 6 5 6 6 7 7 8 9
8 8 8 8 8 8 8 7 7 6 6 6 6 6 7 7 7 8 8 9 10 11 13 13 14 14 15 16 17 18 19 20 21 22 23 23 23 22 22 21 21 21 20 19 18 17 16 14 13 13 13 13 14 15 16 17 17 17 17 17 17 17 16 15 14 13 12 11 11 10 10 10 9 8 7 6 5 5 4 4 3 3 3 4 5 5
8 8 8 8 8 8 8 8 7 7 7 6 6 6 6 7 7 7 8 9 10 11 12 12 13 13 14 15 16 17 17 18 19 20 21 21 21 21 21 20 20 19 18 18 18 17 17 16 15 13 12 12 12 12 13 13 13 13 13 12 12 11 11 10 9 9 8 8 8 8 8 8 8 7 6 5 5 4 4 4 3 3 2 1 1 2
8 8 8 8 8 9 8 8 8 7 7 7 6 6 6 6 7 7 7 8 9 10 10 11 11 12 13 14 15 16 17 17 17 18 19 19 19 20 20 20 19 18 17 16 16 16 16 16 16 15 14 14 13 12 12 11 11 10 10 9 9 8 7 7 7 6 6 6 6 6 6 6 6 6 5 5 4 4 4 4 4 4 4 3 1 1
7 8 8 8 8 8 9 8 8 8 7 7 7 6 6 6 6 7 7 7 8 8 9 10 10 11 12 13 14 15 15 16 16 17 17 18 18 18 19 19 19 18 17 16 15 15 15 15 15 15 15 15 14 14 13 12 11 10 10 9 8 8 7 7 6 6 5 5 5 5 5 5 5 5 4 4 3 3 3 4 4 4 4 4 3 2
7 7 7 8 8 8 9 9 8 8 8 7 7 7 6 6 6 6 6 6 7 7 8 9 9 10 11 12 13 13 14 15 15 16 16 17 17 17 18 18 18 18 17 16 15 14 14 14 14 14 14 14 14 13 13 12 11 11 10 10 9 9 9 8 8 7 6 6 6 6 5 5 5 4 4 3 3 3 3 3 4 4 4 4 4 4
7 7 7 7 8 8 8 8 8 8 8 8 7 7 7 6 6 6 6 6 6 7 7 8 9 9 10 11 11 12 12 13 14 15 15 15 16 17 17 17 17 17 17 16 16 15 14 14 14 13 13 13 12 12 11 11 10 10 10 9 9 9 9 9 8 8 7 7 6 6 5 5 4 4 4 3 3 3 3 3 3 3 3 3 3 4
7 7 7 7 7 8 8 8 8 8 8 8 8 7 7 7 6 6 6 6 6 6 6 7 8 8 9 10 10 10 11 12 12 13 14 14 15 15 16 16 16 16 16 16 15 15 14 14 14 13 13 13 12 12 11 11 10 10 9 9 9 8 8 8 8 8 7 7 6 6 5 5 4 4 3 3 3 2 2 2 2 1 1 1 1 1
8 7 7 7 7 7 7 8 8 8 8 8 8 8 8 7 7 7 6 6 5 5 5 6 6 7 8 8 9 9 9 10 11 12 12 12 13 14 14 14 15 15 15 15 15 14 14 14 14 14 14 13 13 13 12 12 11 11 10 9 9 8 8 8 7 7 7 6 6 6 5 5 4 4 4 3 3 2 2 2 1 1 1 1 1 1
8 8 7 7 7 7 7 7 7 8 8 8 8 8 8 8 7 7 6 6 5 5 5 5 5 6 6 7 8 8 8 9 10 10 11 11 11 12 12 13 13 14 14 14 14 14 14 14 14 14 14 13 13 13 13 12 12 11 11 10 9 9 8 8 7 7 6 6 6 5 5 5 4 4 4 4 3 3 3 3 2 2 3 3 3 3
9 8 7 7 7 7 7 7 7 7 7 7 7 7 7 7 7 7 6 6 5 5 4 4 4 5 5 6 7 7 8 8 9 9 10 10 10 11 11 12 12 13 13 13 14 14 15 14 14 14 13 13 13 12 12 12 12 11 11 10 10 9 8 8 7 7 6 6 5 5 4 4 4 4 3 3 3 3 3 3 3 3 4 4 4 5
9 9 8 7 7 7 6 6 7 7 7 7 7 7 7 7 7 7 6 6 5 5 4 4 4 4 5 5 6 7 7 8 8 8 9 9 10 10 10 11 11 12 12 12 13 14 14 14 14 14 13 13 13 12 12 12 12 11 11 11 10 10 9 8 8 7 6 6 5 5 4 4 4 3 3 3 3 3 3 3 3 4 4 4 5 6
10 9 9 8 7 7 7 6 6 6 6 6 6 6 6 6 6 6 6 6 5 5 4 4 4 4 4 5 5 6 7 7 7 8 8 8 9 9 10 10 10 11 11 12 12 12 13 13 14 14 14 13 13 13 13 12 12 12 12 12 11 11 10 10 9 8 8 7 7 6 6 5 5 5 4 4 4 4 4 4 4 4 4 5 5 6
11 10 9 8 8 7 7 7 6 6 6 6 6 6 6 6 6 6 6 5 5 5 4 4 4 4 4 4 5 6 6 7 7 7 8 8 8 9 10 10 10 10 11 11 11 12 12 13 13 14 14 14 14 14 13 13 13 13 12 12 12 12 11 11 11 10 10 9 9 9 8 8 7 7 6 6 6 6 5 5 5 5 6 6 6 7
12 11 10 9 8 8 7 7 7 6 6 6 6 6 6 6 6 5 5 5 5 4 4 4 4 4 4 4 5 5 6 6 7 7 7 8 8 9 9 10 10 10 10 11 11 11 12 12 13 13 14 14 15 15 15 14 14 14 13 13 13 12 12 12 12 12 11 11 11 11 10 10 9 9 8 8 8 8 7 7 7 7 8 8 8 8
13 12 11 10 9 8 8 7 7 7 6 6 6 6 6 6 6 5 5 5 4 4 4 4 4 4 4 4 5 5 6 6 7 7 7 8 8 9 9 10 10 10 10 10 11 11 11 12 12 13 13 14 15 15 15 15 15 15 14 14 13 13 13 12 12 12 12 12 12 12 11 11 11 11 10 10 10 9 9 9 9 9 9 10 10 10
14 12 11 11 10 9 9 8 8 7 7 7 6 6 6 6 6 5 5 5 4 4 4 4 4 4 4 4 5 5 6 6 7 7 8 8 8 9 9 10 10 11 10 10 11 11 11 11 11 12 12 13 14 15 15 15 15 15 15 14 14 13 13 12 12 12 12 12 12 12 12 12 12 12 11 11 11 11 11 11 11 11 11 11 11 11
14 13 12 12 11 10 9 9 8 8 8 7 7 7 7 6 6 6 6 5 5 4 4 4 4 4 4 5 5 5 6 6 7 7 8 8 9 9 10 10 11 11 11 11 11 11 11 11 11 11 12 12 13 14 14 15 15 15 15 15 14 14 13 12 12 12 12 12 12 12 12 12 12 12 12 12 12 12 12 12 12 12 12 12 12 12
15 14 13 12 12 11 10 10 9 9 9 8 8 8 7 7 7 7 6 6 5 5 5 5 5 5 5 6 6 6 7 7 7 8 8 9 9 10 10 11 11 12 12 12 12 12 11 11 11 11 12 12 12 13 13 14 15 15 15 15 15 14 13 13 12 12 12 12 12 12 13 13 13 13 13 13 13 12 12 12 12 13 13 13 13 13
16 15 14 13 13 12 11 11 10 10 9 9 9 9 8 8 8 8 7 7 7 6 6 6 6 7 7 7 7 8 8 8 9 9 9 10 10 10 11 11 12 12 13 13 13 12 12 12 12 12 12 12 13 13 13 14 14 15 15 15 15 15 14 14 13 12 12 12 12 12 13 13 13 13 13 13 13 13 13 13 13 13 13 13 13 13
18 16 15 15 14 13 12 12 11 11 10 10 10 10 9 9 9 9 8 8 8 8 8 8 8 8 9 9 9 9 10 10 10 10 10 10 11 11 11 12 12 13 13 13 13 13 13 12 12 13 13 13 13 14 14 14 15 15 15 15 15 15 15 15 14 13 13 12 12 12 12 13 13 13 14 14 14 14 14 14 14 14 14 14 14 14
19 18 16 16 15 14 13 13 12 12 12 11 11 11 11 10 10 10 9 9 9 9 9 9 9 9 10 10 11 11 11 12 12 12 12 12 12 12 12 12 13 13 13 13 13 13 13 13 13 13 13 14 14 14 15 15 15 16 16 16 16 16 16 15 15 14 14 13 13 13 13 13 13 13 14 14 14 14 15 15 15 15 15 15 15 15
20 19 18 17 16 15 14 14 13 13 13 12 12 12 12 12 11 11 10 10 10 10 10 10 10 10 11 12 12 13 13 13 13 13 13 13 13 13 13 13 13 13 14 14 13 13 13 13 13 13 14 14 15 15 16 16 16 16 16 16 16 16 16 16 15 15 15 14 14 14 13 13 13 14 14 14 14 15 15 15 15 15 16 16 16 16
20 19 19 18 17 16 15 15 14 14 14 14 13 13 13 13 12 12 11 11 11 11 11 11 11 11 12 12 13 13 14 14 14 14 14 14 14 13 13 13 13 14 14 14 14 14 14 14 14 14 14 15 15 16 17 17 17 17 17 17 17 16 16 16 16 16 16 15 15 14 14 14 14 14 14 14 14 15 15 15 16 16 16 16 17 17
21 20 19 18 18 17 16 16 16 15 15 15 15 15 14 14 14 13 12 12 12 12 12 12 12 12 12 13 13 14 14 15 15 15 15 15 14 14 14 14 14 14 14 14 14 14 14 14 14 15 15 16 16 17 17 18 18 18 18 18 18 17 17 16 16 16 16 16 16 15 15 15 15 15 15 15 15 15 15 15 16 16 16 17 17 17
22 21 20 19 19 18 17 17 17 17 16 16 16 16 16 15 15 14 14 13 13 12 12 12 12 13 13 13 14 14 15 15 15 15 15 15 15 15 14 14 14 14 14 14 14 14 14 14 15 15 16 17 17 18 18 19 19 19 19 18 18 18 17 17 17 17 17 16 16 16 16 16 16 16 16 16 16 15 16 16 16 16 16 17 17 17
23 22 21 20 20 19 19 18 18 18 18 18 17 17 17 17 16 15 15 14 14 13 13 13 13 13 13 14 14 14 15 15 15 16 16 16 15 15 15 14 14 14 14 14 14 14 15 15 15 16 17 17 18 19 19 20 20 19 19 19 18 18 18 17 17 17 17 17 17 17 17 17 17 17 17 17 16 16 16 16 16 17 17 17 17 17
24 23 22 21 21 20 20 20 19 19 19 19 19 18 18 18 17 17 16 15 15 14 14 13 13 14 14 14 14 14 15 15 15 16 16 16 16 16 15 15 14 14 14 14 14 15 15 16 16 17 18 18 19 20 20 20 20 20 20 19 19 18 18 18 18 18 18 18 18 18 18 18 18 18 18 18 17 17 17 17 17 17 17 17 17 18
24 24 23 23 22 22 21 21 20 20 20 20 20 19 19 19 18 18 17 16 16 15 14 14 14 14 14 14 14 15 15 15 16 16 16 16 16 16 16 15 15 15 15 15 15 16 16 16 17 18 19 19 20 20 20 21 20 20 20 20 19 19 19 19 19 19 19 19 19 19 19 19 19 19 19 18 18 18 18 17 17 18 18 18 18 18
25 25 24 24 23 23 22 22 21 21 21 21 21 20 20 20 19 19 18 17 17 16 15 15 15 15 15 15 15 15 15 15 16 16 16 16 16 16 16 16 16 16 16 16 16 16 17 17 18 19 19 20 20 21 21 21 21 20 20 20 20 20 20 20 20 20 20 20 21 20 20 20 20 20 19 19 19 18 18 18 18 18 18 18 18 19
26 26 25 25 24 24 23 23 22 22 22 21 21 21 21 21 20 20 19 19 18 17 16 16 16 15 15 15 15 15 16 16 16 16 17 17 17 17 17 17 17 17 17 17 17 17 17 18 18 19 20 21 21 21 21 21 20 20 20 20 20 21 21 21 21 21 21 21 21 21 21 21 20 20 20 19 19 19 19 18 18 18 18 18 18 19
Wind_Direction
307 309 312 315 318 321 325 328 330 331 331 333 334 335 336 338 340 342 343 344 343 343 342 342 342 343 345 346 347 349 351 353 354 354 354 357 3 7 7 6 7 10 13 15 16 18 23 32 45 64 86 106 122 133 140 145 148 149 150 151 153 155 157 160 162 164 165 166 168 170 172 174 176 178 180 182 185 188 189 190 192 195 197 200 205 210
304 305 309 313 318 322 325 329 331 332 332 333 334 336 338 341 344 346 347 348 348 347 347 347 347 348 349 350 352 354 355 357 358 358 359 2 7 10 10 9 10 14 17 20 22 26 31 40 53 68 85 102 116 126 134 139 142 144 145 147 149 152 154 157 159 161 162 163 165 167 170 172 174 176 178 180 183 185 186 187 188 191 195 202 210 215
299 302 306 311 317 322 325 328 329 331 331 333 334 336 340 344 347 350 351 352 352 351 351 351 351 351 352 354 356 358 1 2 2 3 4 7 11 13 13 12 14 17 21 25 29 33 39 47 58 71 85 99 111 121 128 133 137 140 142 144 147 150 152 155 157 158 159 161 163 166 169 171 172 174 175 177 180 183 186 187 186 188 195 204 213 219
293 298 303 310 315 319 322 325 327 328 330 332 335 338 342 347 351 353 354 355 355 356 356 355 355 355 356 357 0 3 6 7 8 8 9 11 15 17 16 16 18 22 26 30 35 40 46 53 62 74 87 99 109 118 125 130 134 137 140 142 145 148 150 152 154 155 156 159 162 165 167 169 170 170 171 174 180 187 193 193 191 192 198 205 211 215
288 294 300 306 311 316 319 322 324 327 329 333 337 342 346 351 354 356 356 357 358 359 360 359 359 358 359 1 4 8 11 12 11 11 12 14 17 19 19 20 23 27 31 35 41 47 52 59 67 77 89 101 110 118 124 129 133 136 138 141 143 146 148 149 150 152 155 159 162 164 165 166 167 167 169 173 181 191 199 200 198 197 202 208 212 215
284 290 297 303 308 312 316 319 323 328 332 337 341 346 351 355 357 358 358 359 0 2 3 2 2 1 1 3 7 11 13 13 13 12 13 15 17 19 20 23 27 32 36 40 46 53 59 65 72 81 92 103 112 119 124 129 132 135 138 140 142 144 145 145 147 150 155 160 162 163 163 164 166 168 171 174 180 187 195 198 198 199 203 209 214 217
280 286 292 299 304 309 314 319 324 330 337 342 346 350 354 358 360 0 0 1 2 4 5 5 4 4 4 6 9 11 12 11 11 11 12 14 16 17 19 24 31 38 43 46 50 57 64 70 77 85 95 105 114 120 125 128 132 134 137 139 141 142 142 144 148 154 159 161 162 162 163 165 169 172 175 177 180 184 189 193 196 199 202 206 211 215
277 282 288 294 300 307 314 321 328 334 341 347 351 354 358 0 2 2 2 3 5 7 8 8 7 7 7 8 9 10 9 8 8 8 10 11 13 14 17 23 33 44 50 53 55 59 65 72 80 89 99 108 116 122 126 129 132 135 138 140 142 142 142 145 151 157 160 161 162 163 165 169 173 176 179 181 184 187 190 193 197 200 203 206 209 213
274 279 285 292 299 307 315 324 332 339 345 351 355 359 1 3 3 3 4 6 8 10 11 12 11 10 10 10 10 9 8 6 5 7 8 9 10 10 13 20 35 48 57 61 61 62 65 70 79 90 103 113 120 125 128 131 134 138 141 145 146 147 148 151 155 156 157 159 161 165 169 172 175 178 181 184 187 190 193 196 199 201 204 207 209 212
269 275 282 290 298 308 317 327 336 342 348 355 1 3 5 4 4 4 5 8 10 12 15 16 15 14 13 12 12 11 9 8 7 8 9 11 12 13 12 14 30 49 60 65 65 63 61 65 73 89 107 119 126 129 131 134 138 143 148 152 154 155 156 157 156 154 153 155 160 165 170 173 176 179 182 185 189 192 194 197 200 202 205 207 208 211
265 269 277 286 297 307 316 326 336 344 351 1 6 8 7 5 4 4 6 9 12 15 17 19 18 17 16 15 14 14 13 12 12 13 15 17 21 25 27 24 19 24 41 51 53 53 51 53 62 89 121 134 137 137 136 138 143 147 149 149 149 150 154 155 155 153 152 152 155 160 166 170 174 179 183 187 190 193 196 199 201 204 205 207 210 214
261 264 269 279 290 302 313 325 335 345 356 6 11 11 8 5 4 4 7 10 14 17 20 21 21 19 18 17 17 17 17 18 20 22 23 26 32 38 41 38 31 18 0 359 10 21 31 37 49 93 149 159 155 146 136 133 138 140 140 136 135 138 144 149 152 153 153 151 150 153 160 167 174 180 186 191 195 198 200 202 204 206 207 210 214 219
258 259 264 272 282 295 308 324 338 351 0 8 11 11 8 6 5 5 8 11 15 18 22 23 23 21 19 19 19 20 21 23 27 29 31 35 41 49 53 51 46 38 29 18 15 23 33 39 51 74 122 154 157 147 128 124 130 134 134 133 132 135 140 146 150 154 156 158 160 162 167 173 181 187 193 198 203 206 208 208 208 209 211 214 219 225
257 257 260 266 276 288 305 323 340 351 360 4 7 9 7 6 6 7 10 12 16 19 23 25 24 23 21 21 21 22 25 28 32 35 37 40 46 53 59 61 59 56 54 55 61 65 57 49 55 69 96 128 143 140 129 127 130 134 134 134 135 139 144 149 154 160 165 171 173 175 178 182 186 191 195 198 203 208 213 216 217 217 219 222 225 229
257 255 256 261 270 284 301 319 334 345 352 358 2 5 7 8 8 9 11 14 17 20 23 25 25 23 23 23 24 25 27 31 35 38 40 42 46 51 57 60 62 62 64 69 75 74 60 51 57 72 92 116 133 136 133 132 135 138 139 141 145 151 157 162 165 170 175 179 181 182 184 186 189 191 194 196 199 203 210 216 221 225 227 228 229 230
259 256 256 258 266 278 295 310 324 335 343 350 357 3 8 10 10 10 12 15 18 21 24 24 24 23 23 24 26 27 30 34 38 40 41 43 45 48 52 56 58 60 62 65 68 64 56 53 60 75 96 116 130 137 137 137 139 141 143 148 156 164 170 173 175 178 181 184 185 186 186 188 189 191 193 194 197 200 206 212 218 222 225 226 226 227
261 259 258 258 263 272 285 300 313 325 335 345 353 1 7 10 11 11 13 15 18 22 24 24 23 22 23 26 28 29 31 35 39 42 42 43 44 45 48 51 54 57 59 62 63 62 60 60 65 76 92 110 125 135 139 140 141 141 144 151 160 169 176 179 180 182 183 185 185 186 187 189 191 193 196 198 200 203 206 210 213 215 217 218 219 221
264 261 260 259 261 267 276 289 303 316 327 339 349 358 4 8 10 11 13 15 18 21 24 24 23 22 22 26 29 31 31 36 40 43 43 43 43 44 46 49 52 55 58 61 63 65 66 68 71 75 83 94 109 123 132 137 140 142 145 151 159 168 176 180 182 182 183 183 183 185 187 189 193 196 200 202 205 207 207 208 208 209 211 212 215 218
266 263 261 260 261 263 269 280 292 306 320 333 343 353 0 5 8 11 13 14 16 19 21 22 22 22 22 26 29 31 32 36 41 44 44 43 43 44 45 47 49 52 55 59 64 68 71 73 75 77 80 85 93 103 114 124 131 137 142 147 154 161 167 171 173 171 169 168 167 168 171 175 180 185 191 195 199 202 204 205 206 208 209 212 215 218
267 264 262 261 260 262 266 273 283 296 310 323 334 344 353 0 6 10 12 13 14 16 18 19 20 21 23 26 29 31 32 36 41 44 45 44 43 43 44 47 48 49 50 54 59 65 72 77 80 81 83 85 89 94 101 109 116 122 128 133 138 142 145 146 145 143 139 135 132 131 132 136 142 151 161 171 180 188 196 202 207 210 213 216 218 218
268 266 263 262 261 262 264 268 275 286 298 310 322 334 344 353 1 6 9 10 12 13 15 16 18 20 22 26 29 31 32 36 41 45 46 45 44 44 45 47 49 49 49 50 53 59 66 73 79 84 86 88 89 92 95 99 103 108 112 117 120 123 124 124 123 121 117 113 108 105 103 105 108 115 125 137 149 162 175 187 199 209 214 218 220 218
270 267 265 263 263 262 263 266 270 277 287 298 310 323 334 345 354 0 5 7 9 10 11 12 14 17 21 25 29 30 31 34 39 44 46 46 46 46 47 49 50 51 50 51 52 54 59 64 71 77 83 88 90 92 93 94 96 98 101 103 106 107 108 108 106 105 102 98 93 88 85 85 86 91 97 106 117 128 136 144 153 170 192 207 216 216
272 269 267 265 263 263 263 264 267 271 278 288 299 311 322 334 344 353 359 3 5 6 7 7 9 13 18 24 28 30 31 32 35 39 43 45 46 47 48 50 52 52 52 52 53 55 57 59 62 65 70 76 81 86 90 92 94 94 95 95 95 95 95 94 92 89 87 83 78 74 72 71 72 75 79 84 91 97 103 107 108 110 120 147 200 222
273 271 268 266 265 263 263 264 265 268 272 279 288 299 310 321 332 342 351 356 359 0 1 1 4 10 16 23 27 30 31 31 33 35 38 40 42 44 46 49 51 52 52 52 53 55 57 58 59 60 61 63 66 69 73 77 80 83 84 84 83 82 80 78 76 75 72 69 66 65 64 65 66 68 71 75 80 86 92 96 99 101 102 105 122 215
273 271 269 267 266 264 263 263 263 264 267 272 278 287 297 308 320 331 340 347 350 352 352 353 359 7 14 20 25 28 30 30 31 33 34 35 37 39 42 44 47 49 50 50 50 51 54 55 56 57 58 59 60 61 63 65 67 68 69 69 69 68 67 66 65 64 62 60 60 60 61 64 66 69 73 78 85 92 99 103 106 107 109 115 127 155
272 271 269 268 266 265 264 263 263 263 264 267 271 277 285 295 306 317 327 334 339 342 344 347 354 2 10 16 22 25 27 28 29 30 31 31 33 35 37 39 41 44 46 47 47 48 49 51 52 52 54 55 56 57 59 61 63 64 65 66 67 67 68 68 67 66 64 61 59 60 61 65 68 73 78 84 91 98 102 105 108 110 114 120 130 144
269 269 269 268 266 266 264 263 263 262 262 264 265 269 275 282 291 300 310 318 325 330 335 341 349 356 3 11 16 20 22 25 27 28 28 29 31 33 34 34 36 39 42 44 45 46 47 47 48 48 48 49 49 49 50 52 53 55 57 59 62 64 66 67 69 68 66 64 63 62 62 65 68 72 76 81 84 87 91 93 98 102 107 115 126 140
268 267 267 267 266 265 264 264 263 263 262 262 262 264 266 271 277 284 293 302 311 319 326 333 341 349 356 3 8 11 15 20 23 25 25 27 29 31 31 31 32 34 38 40 42 43 45 46 45 45 44 44 43 42 41 40 40 40 41 43 46 49 53 57 59 61 62 61 60 59 57 56 57 58 60 62 63 65 65 68 71 77 84 94 109 137
265 266 265 265 265 264 264 263 263 262 262 261 261 261 262 264 267 272 279 287 296 307 316 325 333 340 348 353 357 1 6 12 17 19 20 23 25 27 27 27 28 29 32 35 37 39 42 43 43 42 41 40 39 38 37 35 34 33 32 32 33 34 37 41 44 48 50 51 51 49 47 44 41 38 35 33 32 28 23 16 6 348 330 315 300 285
263 263 263 262 261 261 262 262 262 262 262 261 261 260 260 261 263 266 271 277 284 294 304 315 323 331 337 341 345 350 356 3 8 11 13 16 19 20 20 22 22 23 24 27 30 33 35 37 37 38 37 36 34 33 32 31 30 29 29 28 28 28 29 30 32 33 36 38 39 40 39 38 34 31 26 20 12 5 355 345 332 320 309 301 293 287
260 260 260 260 259 259 259 259 259 260 261 261 260 260 260 260 261 263 265 269 274 282 291 301 311 318 324 327 332 339 345 352 357 1 5 9 10 12 13 14 15 15 15 17 21 24 27 28 29 30 31 30 28 27 26 24 23 22 22 22 22 22 22 23 23 23 22 23 24 25 27 28 27 25 20 15 7 357 348 338 328 319 310 302 295 289
258 258 258 258 256 256 255 255 256 257 259 259 260 260 260 261 261 261 263 264 268 272 279 287 295 303 310 314 320 326 333 339 345 351 355 359 1 2 3 6 7 7 7 8 11 14 17 19 19 20 21 22 21 20 18 16 15 13 12 11 10 10 10 11 10 10 8 7 6 5 5 4 4 3 0 357 350 344 336 328 321 313 308 300 294 289
256 256 256 256 255 253 252 252 252 254 255 257 258 259 260 260 260 260 260 260 262 265 269 275 282 290 298 305 309 315 321 327 334 339 345 349 351 353 354 356 357 359 360 1 2 3 5 7 8 9 10 11 12 12 11 9 7 5 3 1 360 359 358 357 357 355 354 353 351 349 347 345 344 340 338 333 329 324 318 313 308 303 298 294 289 285
254 255 255 254 254 251 250 249 248 250 251 253 255 257 258 259 259 259 259 258 258 260 263 268 274 281 288 295 301 307 312 317 322 328 334 338 340 342 344 347 348 350 351 353 354 354 355 356 357 359 1 2 2 3 4 3 2 360 358 355 353 350 349 347 346 345 344 342 341 339 337 336 334 331 328 324 320 316 312 308 304 300 294 290 286 282
253 253 253 253 252 251 249 247 246 246 247 249 251 253 255 256 257 258 258 257 257 258 261 264 269 275 281 287 291 297 303 308 313 318 324 328 330 333 335 337 340 342 343 344 344 345 346 346 347 350 352 353 354 355 356 357 357 355 353 351 348 345 343 340 339 337 336 335 333 332 331 329 328 326 323 320 317 313 310 305 302 298 294 290 286 282
251 252 252 252 251 249 247 245 244 244 244 246 248 250 252 254 256 257 258 258 260 261 263 266 269 272 276 281 285 289 293 298 303 308 314 318 321 324 327 329 331 333 335 335 336 336 337 338 339 340 343 346 348 349 349 350 351 350 349 347 344 341 338 335 333 331 329 328 327 326 325 323 322 321 319 317 314 311 308 304 300 297 294 291 288 285
250 250 251 250 249 249 246 244 243 242 242 243 245 247 249 252 255 257 259 262 263 267 269 272 275 277 278 280 280 283 286 290 295 300 306 310 314 317 319 321 323 325 326 327 327 328 328 329 330 332 334 337 340 343 344 344 344 345 344 343 341 338 334 331 327 325 323 322 320 319 318 317 316 315 314 312 311 308 306 303 300 297 294 292 289 287
248 249 249 249 249 248 246 244 242 241 240 241 242 244 247 250 253 256 260 264 267 271 275 278 281 283 283 284 283 283 284 286 290 294 298 303 307 310 312 314 316 317 318 319 319 320 320 321 323 325 327 329 332 334 336 338 338 339 338 337 336 333 330 327 323 320 317 315 313 312 311 310 310 309 308 308 306 305 303 301 299 297 295 293 291 290
246 247 248 248 248 247 246 243 242 240 240 240 241 243 245 249 252 256 260 264 268 273 277 281 284 285 287 287 287 287 287 287 289 291 295 298 301 304 306 308 309 310 311 312 312 313 314 314 316 319 321 324 326 327 329 330 332 332 332 331 329 328 326 323 319 316 312 310 307 306 305 304 304 303 303 303 302 301 300 299 298 297 296 295 293 292
245 246 246 247 247 246 245 244 242 241 240 240 241 243 245 248 251 255 258 263 267 272 276 280 283 286 288 289 290 290 290 290 290 292 293 295 298 300 302 303 304 305 306 306 307 307 308 310 312 314 317 320 322 324 325 326 327 327 326 326 324 323 321 318 315 312 309 306 303 301 300 299 299 299 298 298 298 298 298 297 297 296 295 295 295 294
243 244 245 246 246 246 245 244 243 242 241 241 242 244 246 248 251 254 258 262 266 270 274 279 283 285 288 290 291 291 292 292 293 293 294 295 296 298 299 299 300 300 300 301 301 302 304 306 309 311 314 317 319 321 322 323 324 323 323 322 320 318 316 314 312 310 307 304 301 300 298 297 296 295 295 295 295 295 295 295 295 295 295 294 294 294
242 243 244 245 245 245 245 245 244 243 243 243 243 245 247 249 251 254 258 262 266 270 274 278 282 285 288 289 290 292 293 293 294 294 295 295 295 296 296 297 296 296 296 296 296 297 299 302 305 309 312 316 318 320 321 322 321 321 320 319 317 315 312 310 308 306 304 302 301 299 298 296 296 295 294 294 294 294 294 294 294 294 294 294 294 294
241 242 243 244 245 245 245 244 244 244 244 244 244 245 247 250 253 255 258 262 266 270 274 278 282 285 288 290 291 292 293 293 294 295 295 295 295 295 295 294 293 292 292 291 291 293 295 297 301 306 309 313 316 319 320 321 320 319 318 317 315 312 309 306 304 302 300 299 299 298 297 297 295 295 294 293 293 293 293 293 293 294 294 294 294 294
240 241 243 244 244 245 245 244 244 244 243 243 244 245 247 250 252 255 258 261 266 270 274 278 282 285 287 289 291 292 292 293 294 295 295 295 295 294 293 292 290 289 288 287 287 288 291 295 299 303 307 311 314 317 318 319 318 318 317 315 313 310 306 304 301 299 297 297 296 296 296 296 296 295 294 293 293 293 292 292 292 293 293 293 294 294
240 241 242 243 244 244 244 244 244 244 244 244 244 246 247 249 252 254 256 260 264 268 272 277 281 284 286 288 290 291 292 292 293 293 294 294 294 293 291 290 288 286 284 283 283 285 289 293 298 302 305 309 312 315 316 317 317 316 315 313 311 308 305 302 300 297 296 295 295 294 295 295 295 295 295 294 293 293 292 292 291 291 291 292 292 293
239 240 241 242 243 243 243 244 244 244 244 245 245 246 247 249 251 253 255 258 262 266 270 275 278 281 283 286 288 290 291 291 292 292 292 292 292 291 290 287 285 282 280 279 280 282 286 291 296 301 305 308 311 313 314 315 314 314 313 311 309 307 304 301 299 297 296 295 295 294 295 295 295 295 295 295 294 293 292 291 291 291 290 290 290 291
238 239 240 241 241 242 242 243 244 244 244 245 246 247 248 249 250 252 254 257 261 264 268 273 276 279 281 284 286 288 289 290 290 290 290 290 290 289 288 285 282 279 277 276 277 280 285 290 295 300 305 309 311 312 313 313 313 312 311 309 307 305 303 300 299 297 296 295 295 295 295 295 296 296 296 295 294 293 293 292 291 290 290 290 290 290
237 238 239 239 240 241 241 242 243 244 244 245 246 247 248 249 250 252 253 256 259 263 267 271 274 278 281 283 285 287 287 288 289 289 289 288 287 286 285 282 279 276 274 274 276 279 284 289 295 300 304 308 311 312 312 312 312 311 310 308 306 304 302 300 298 297 296 295 295 295 295 296 296 296 295 294 294 293 293 292 292 291 290 290 290 290
236 237 238 239 239 240 240 241 242 243 244 245 246 247 248 249 250 251 253 256 259 262 266 270 273 277 280 282 285 286 287 287 288 288 287 286 285 284 282 279 276 274 273 274 276 279 284 289 295 300 304 307 309 311 311 311 311 310 308 307 305 303 302 300 298 297 296 295 295 295 295 295 295 294 294 293 293 292 292 291 291 290 290 290 290 291
236 236 237 238 239 239 240 241 242 243 244 245 246 247 248 249 250 252 253 255 258 261 265 268 272 275 278 281 283 285 286 286 287 286 286 285 284 282 280 277 275 273 273 275 277 281 286 291 296 300 303 307 309 310 310 310 310 309 307 306 304 303 301 300 299 297 296 296 295 294 294 294 293 293 292 292 291 291 290 290 289 289 289 290 290 290
235 236 237 238 238 239 240 241 242 243 244 246 247 248 249 250 251 252 253 255 258 260 263 267 270 273 276 279 281 283 284 284 285 285 284 284 283 281 279 276 274 273 274 276 279 283 287 292 297 300 303 305 307 309 310 310 309 308 306 305 304 303 301 300 299 298 297 296 295 294 293 293 292 292 291 290 290 289 289 288 288 288 288 288 289 289
Height
5678 5677 5676 5675 5674 5673 5672 5671 5670 5668 5667 5666 5664 5663 5662 5660 5658 5657 5655 5653 5651 5649 5648 5645 5643 5641 5639 5637 5634 5631 5627 5624 5620 5617 5613 5610 5606 5603 5600 5597 5593 5589 5585 5581 5577 5573 5570 5568 5565 5563 5562 5562 5563 5564 5566 5568 5571 5574 5577 5582 5585 5590 5595 5598 5603 5607 5611 5616 5621 5626 5629 5633 5637 5642 5644 5648 5652 5654 5654 5655 5658 5660 5663 5665 5668 5669
5677 5676 5675 5674 5673 5673 5672 5670 5669 5668 5667 5665 5664 5662 5661 5659 5658 5656 5654 5653 5651 5649 5647 5645 5643 5641 5639 5636 5633 5630 5627 5624 5621 5618 5614 5611 5608 5604 5602 5599 5596 5593 5589 5585 5582 5579 5577 5574 5572 5571 5570 5569 5570 5570 5572 5574 5576 5579 5582 5586 5590 5594 5598 5602 5606 5610 5613 5618 5624 5628 5630 5634 5638 5641 5644 5648 5650 5652 5654 5656 5659 5662 5665 5667 5668 5669
5676 5675 5675 5674 5673 5672 5671 5670 5668 5667 5666 5665 5663 5662 5660 5659 5658 5656 5654 5652 5650 5648 5647 5645 5643 5641 5638 5636 5633 5631 5628 5624 5621 5618 5615 5612 5609 5607 5604 5602 5599 5596 5593 5590 5587 5584 5582 5580 5579 5578 5577 5577 5577 5578 5579 5580 5583 5585 5588 5591 5594 5598 5601 5605 5608 5612 5616 5622 5627 5630 5631 5634 5637 5640 5643 5647 5650 5653 5656 5658 5661 5663 5666 5668 5670 5671
5675 5675 5674 5673 5672 5671 5670 5669 5668 5667 5665 5664 5663 5661 5660 5658 5657 5655 5653 5652 5650 5648 5647 5645 5643 5641 5638 5636 5633 5631 5628 5625 5622 5619 5616 5614 5611 5609 5607 5605 5602 5600 5597 5594 5592 5590 5588 5586 5585 5584 5584 5583 5584 5584 5585 5587 5588 5591 5593 5596 5599 5602 5605 5609 5612 5616 5620 5625 5628 5631 5632 5635 5638 5642 5646 5650 5653 5655 5658 5659 5662 5664 5666 5667 5669 5670
5674 5674 5673 5673 5672 5671 5670 5668 5668 5666 5665 5663 5662 5661 5659 5658 5657 5655 5653 5652 5650 5648 5646 5644 5643 5641 5638 5636 5633 5631 5628 5626 5623 5620 5617 5615 5613 5611 5609 5607 5605 5603 5601 5599 5597 5595 5593 5592 5591 5590 5590 5590 5590 5591 5592 5593 5594 5596 5598 5600 5603 5606 5610 5614 5618 5621 5625 5627 5629 5631 5634 5637 5641 5645 5649 5652 5654 5657 5658 5660 5662 5664 5665 5666 5667 5668
5674 5673 5673 5672 5671 5670 5669 5668 5667 5666 5664 5663 5662 5660 5659 5658 5656 5655 5653 5651 5650 5648 5646 5644 5643 5640 5638 5636 5633 5631 5628 5626 5624 5621 5619 5616 5614 5613 5611 5610 5608 5606 5605 5603 5601 5599 5598 5597 5597 5596 5596 5596 5596 5597 5597 5598 5600 5601 5603 5605 5608 5611 5614 5618 5622 5625 5628 5630 5631 5633 5637 5640 5644 5647 5650 5652 5654 5656 5658 5660 5662 5664 5665 5666 5666 5667
5673 5673 5672 5671 5671 5670 5669 5668 5666 5665 5664 5663 5661 5660 5659 5658 5656 5655 5653 5651 5650 5648 5646 5644 5642 5640 5638 5636 5633 5631 5629 5627 5625 5623 5620 5618 5616 5614 5613 5612 5610 5609 5608 5607 5605 5603 5602 5602 5601 5601 5601 5601 5601 5602 5602 5603 5605 5606 5608 5610 5612 5614 5617 5620 5624 5628 5630 5632 5634 5636 5639 5643 5645 5648 5649 5651 5653 5655 5657 5659 5661 5663 5664 5665 5665 5666
5672 5672 5671 5671 5670 5669 5668 5667 5666 5665 5663 5663 5661 5660 5659 5658 5656 5655 5653 5652 5650 5648 5647 5645 5643 5640 5638 5636 5633 5631 5629 5628 5626 5624 5621 5619 5617 5616 5615 5614 5613 5612 5611 5609 5608 5608 5607 5606 5606 5606 5606 5606 5606 5606 5607 5608 5609 5610 5611 5613 5615 5617 5620 5626 5629 5630 5631 5633 5636 5638 5641 5643 5645 5647 5649 5651 5653 5655 5657 5658 5660 5662 5663 5664 5665 5666
5671 5671 5670 5670 5669 5668 5668 5667 5666 5664 5663 5662 5661 5660 5659 5658 5657 5655 5654 5652 5651 5649 5648 5646 5643 5641 5639 5637 5634 5632 5631 5628 5627 5625 5623 5620 5618 5617 5616 5616 5615 5615 5613 5613 5612 5611 5611 5610 5610 5610 5610 5609 5610 5610 5611 5612 5612 5613 5615 5617 5618 5620 5625 5630 5633 5634 5634 5635 5638 5640 5643 5644 5646 5648 5649 5651 5653 5655 5656 5658 5659 5660 5662 5663 5664 5665
5670 5670 5669 5669 5668 5668 5667 5666 5665 5664 5663 5662 5661 5660 5658 5658 5657 5656 5654 5653 5652 5650 5648 5647 5645 5643 5640 5638 5636 5634 5632 5630 5628 5626 5624 5621 5619 5617 5617 5617 5617 5617 5616 5615 5614 5614 5614 5614 5614 5614 5614 5613 5613 5613 5614 5614 5615 5616 5617 5619 5622 5625 5629 5632 5635 5638 5638 5639 5639 5641 5643 5645 5647 5648 5650 5652 5653 5655 5656 5657 5658 5659 5660 5661 5662 5663
5669 5669 5668 5668 5668 5667 5667 5666 5665 5664 5663 5662 5661 5660 5659 5658 5657 5656 5655 5653 5652 5651 5650 5648 5646 5644 5642 5640 5637 5635 5633 5631 5629 5627 5625 5622 5619 5618 5617 5618 5618 5618 5618 5617 5617 5617 5617 5616 5616 5616 5616 5616 5616 5617 5617 5617 5617 5618 5619 5621 5626 5631 5634 5636 5638 5640 5641 5642 5643 5643 5645 5647 5649 5651 5652 5653 5654 5654 5655 5656 5657 5658 5659 5660 5661 5663
5668 5668 5668 5667 5667 5666 5666 5665 5664 5663 5663 5662 5661 5660 5659 5658 5658 5657 5655 5654 5653 5652 5650 5649 5647 5645 5643 5641 5638 5636 5634 5633 5631 5629 5626 5623 5621 5619 5619 5619 5619 5620 5619 5619 5619 5619 5618 5618 5618 5618 5617 5618 5618 5618 5619 5618 5619 5619 5621 5624 5630 5635 5637 5638 5639 5641 5643 5644 5646 5648 5650 5650 5651 5652 5653 5653 5653 5653 5654 5655 5656 5657 5658 5660 5661 5662
5668 5668 5667 5667 5666 5666 5665 5664 5664 5663 5663 5662 5661 5660 5659 5659 5658 5657 5655 5654 5653 5652 5651 5650 5648 5646 5644 5642 5640 5638 5636 5634 5632 5630 5628 5627 5624 5623 5622 5622 5622 5621 5620 5619 5619 5619 5620 5620 5619 5619 5619 5620 5621 5621 5621 5621 5622 5622 5623 5626 5629 5633 5637 5639 5641 5643 5646 5647 5648 5648 5649 5649 5650 5651 5652 5652 5653 5653 5653 5654 5655 5657 5658 5659 5660 5661
5667 5667 5666 5666 5665 5665 5664 5664 5663 5663 5662 5662 5661 5661 5660 5659 5658 5657 5656 5654 5653 5653 5652 5650 5649 5647 5645 5643 5641 5639 5638 5636 5634 5633 5631 5630 5628 5626 5625 5624 5624 5623 5622 5621 5620 5620 5620 5619 5619 5619 5620 5621 5622 5623 5623 5623 5624 5625 5626 5627 5629 5633 5636 5638 5640 5642 5643 5643 5644 5644 5646 5647 5648 5649 5650 5651 5652 5652 5653 5654 5655 5656 5657 5658 5659 5660
5666 5666 5665 5665 5664 5664 5663 5663 5663 5662 5662 5662 5661 5661 5660 5659 5658 5657 5656 5654 5653 5653 5652 5651 5649 5648 5647 5645 5643 5641 5639 5638 5636 5635 5634 5633 5631 5630 5628 5627 5626 5625 5624 5623 5622 5622 5621 5620 5620 5620 5622 5623 5624 5625 5625 5627 5628 5629 5630 5631 5634 5636 5638 5639 5640 5641 5642 5642 5643 5643 5644 5645 5646 5647 5648 5649 5650 5651 5652 5653 5654 5655 5657 5658 5658 5659
5665 5665 5664 5664 5664 5663 5663 5663 5662 5662 5662 5661 5661 5661 5660 5659 5658 5657 5656 5654 5653 5653 5652 5651 5650 5649 5648 5646 5644 5643 5641 5639 5638 5637 5636 5635 5634 5633 5631 5630 5629 5628 5627 5626 5625 5624 5624 5623 5623 5623 5624 5625 5626 5627 5628 5629 5630 5631 5633 5635 5637 5638 5639 5641 5641 5642 5642 5643 5643 5644 5645 5645 5646 5647 5648 5649 5650 5651 5652 5653 5654 5655 5656 5657 5658 5658
5664 5664 5664 5663 5663 5663 5662 5662 5662 5661 5661 5661 5660 5660 5659 5659 5658 5657 5656 5655 5654 5653 5652 5651 5650 5649 5648 5647 5646 5644 5643 5641 5640 5639 5638 5637 5636 5635 5634 5633 5632 5631 5630 5629 5629 5628 5628 5627 5627 5627 5627 5627 5628 5629 5630 5631 5632 5633 5635 5636 5638 5639 5640 5641 5642 5643 5643 5644 5644 5645 5646 5646 5647 5648 5648 5649 5650 5651 5652 5653 5654 5655 5656 5656 5657 5657
5664 5663 5663 5663 5662 5662 5662 5661 5661 5661 5661 5660 5660 5659 5659 5659 5658 5657 5656 5655 5654 5653 5653 5652 5651 5651 5649 5648 5647 5646 5644 5643 5641 5640 5639 5639 5638 5637 5636 5636 5635 5634 5633 5633 5632 5632 5632 5632 5631 5631 5631 5631 5632 5632 5633 5633 5634 5635 5636 5638 5639 5640 5642 5642 5643 5643 5644 5644 5645 5645 5646 5647 5647 5648 5648 5649 5650 5650 5651 5652 5653 5653 5654 5655 5655 5655
5663 5663 5662 5662 5662 5661 5661 5661 5661 5660 5660 5660 5659 5659 5659 5658 5658 5657 5656 5656 5655 5654 5653 5653 5652 5651 5650 5649 5648 5647 5646 5644 5643 5642 5641 5640 5640 5639 5638 5638 5637 5637 5636 5636 5635 5635 5635 5636 5636 5636 5636 5637 5637 5637 5637 5637 5637 5638 5639 5640 5641 5642 5643 5644 5644 5644 5645 5645 5645 5646 5646 5647 5647 5648 5648 5649 5649 5650 5651 5651 5652 5653 5653 5653 5654 5654
5662 5662 5662 5661 5661 5661 5660 5660 5660 5660 5659 5659 5659 5658 5658 5658 5658 5657 5657 5656 5655 5655 5654 5653 5653 5652 5651 5650 5649 5648 5647 5646 5644 5644 5643 5642 5642 5641 5640 5639 5639 5638 5638 5638 5638 5638 5638 5638 5638 5639 5639 5640 5641 5641 5641 5641 5641 5641 5641 5642 5643 5643 5644 5644 5645 5645 5645 5646 5646 5646 5647 5647 5647 5648 5648 5648 5649 5650 5650 5651 5652 5652 5653 5653 5653 5654
5661 5661 5661 5661 5660 5660 5660 5659 5659 5659 5659 5658 5658 5658 5658 5658 5657 5657 5657 5656 5655 5655 5654 5654 5653 5653 5652 5651 5650 5649 5648 5647 5646 5646 5645 5644 5643 5643 5642 5641 5641 5640 5640 5640 5640 5639 5639 5639 5640 5640 5641 5642 5642 5642 5642 5643 5643 5643 5643 5643 5644 5644 5644 5645 5645 5646 5646 5646 5647 5647 5647 5648 5648 5648 5648 5649 5649 5650 5650 5651 5651 5652 5652 5653 5653 5654
5660 5660 5660 5660 5659 5659 5659 5659 5658 5658 5658 5658 5658 5658 5657 5657 5657 5657 5656 5656 5655 5655 5654 5654 5653 5653 5653 5652 5651 5650 5649 5648 5648 5647 5647 5646 5645 5645 5644 5643 5643 5643 5643 5642 5642 5641 5641 5641 5641 5642 5642 5643 5643 5643 5643 5643 5644 5644 5644 5645 5645 5645 5645 5646 5646 5646 5647 5647 5647 5647 5648 5648 5648 5648 5649 5649 5650 5650 5651 5651 5652 5652 5652 5653 5653 5654
5660 5659 5659 5659 5658 5658 5658 5658 5658 5658 5657 5657 5657 5657 5657 5657 5657 5656 5656 5656 5655 5655 5654 5654 5654 5653 5653 5652 5651 5650 5650 5649 5648 5648 5648 5648 5647 5647 5646 5645 5645 5644 5644 5644 5643 5643 5643 5643 5643 5643 5643 5643 5643 5643 5644 5644 5644 5645 5645 5645 5646 5646 5646 5647 5647 5647 5647 5648 5648 5648 5648 5648 5649 5649 5649 5650 5650 5651 5651 5651 5652 5652 5652 5653 5653 5653
5658 5658 5658 5658 5658 5658 5657 5657 5657 5657 5657 5657 5657 5656 5656 5656 5656 5656 5656 5655 5655 5655 5654 5654 5654 5653 5653 5652 5652 5651 5650 5650 5649 5649 5649 5648 5648 5648 5647 5647 5646 5646 5646 5645 5645 5644 5644 5644 5644 5644 5644 5644 5644 5644 5644 5645 5645 5645 5646 5646 5646 5647 5647 5647 5647 5648 5648 5648 5648 5648 5649 5649 5650 5650 5650 5650 5651 5651 5651 5651 5652 5652 5652 5653 5653 5653
5658 5658 5657 5657 5657 5657 5657 5656 5656 5656 5656 5656 5656 5656 5656 5655 5655 5655 5655 5655 5655 5655 5654 5654 5654 5653 5653 5653 5652 5652 5651 5651 5650 5650 5650 5649 5649 5649 5648 5648 5648 5647 5647 5647 5646 5646 5646 5645 5645 5645 5645 5645 5645 5645 5646 5646 5646 5646 5646 5647 5647 5647 5647 5647 5648 5648 5648 5648 5648 5649 5649 5650 5650 5650 5651 5651 5651 5651 5651 5652 5652 5652 5652 5653 5653 5653
5657 5657 5657 5656 5656 5656 5656 5656 5656 5656 5655 5655 5655 5655 5655 5655 5655 5655 5655 5655 5655 5655 5654 5653 5653 5653 5653 5652 5652 5652 5652 5651 5651 5651 5651 5650 5650 5649 5649 5648 5648 5648 5648 5648 5647 5647 5647 5647 5647 5647 5647 5647 5647 5647 5647 5647 5647 5647 5647 5647 5648 5648 5648 5648 5648 5648 5648 5649 5649 5649 5650 5650 5650 5651 5651 5651 5651 5651 5651 5651 5651 5652 5652 5652 5653 5653
5656 5656 5656 5656 5655 5655 5655 5655 5655 5655 5655 5655 5655 5655 5655 5655 5655 5655 5655 5655 5655 5654 5654 5653 5653 5653 5652 5652 5652 5652 5652 5652 5651 5651 5651 5651 5650 5650 5650 5650 5649 5649 5649 5649 5648 5648 5648 5648 5648 5648 5648 5648 5648 5648 5648 5648 5648 5648 5648 5648 5648 5648 5648 5648 5648 5649 5649 5649 5649 5649 5650 5650 5650 5651 5651 5651 5651 5651 5651 5651 5651 5651 5652 5652 5652 5652
5655 5655 5655 5655 5655 5654 5654 5654 5654 5654 5654 5654 5654 5654 5654 5655 5655 5654 5654 5654 5654 5654 5653 5653 5653 5652 5652 5652 5652 5652 5653 5652 5652 5652 5652 5652 5651 5651 5651 5651 5650 5650 5650 5650 5649 5649 5649 5649 5649 5649 5649 5649 5649 5649 5649 5649 5649 5649 5649 5649 5649 5649 5649 5649 5649 5649 5649 5649 5649 5650 5650 5650 5650 5650 5650 5651 5651 5651 5651 5651 5651 5651 5651 5652 5652 5652
5654 5654 5654 5654 5654 5654 5653 5653 5653 5653 5653 5653 5653 5654 5654 5654 5654 5654 5654 5654 5654 5653 5653 5653 5653 5652 5652 5652 5652 5652 5652 5652 5652 5652 5652 5652 5652 5651 5652 5651 5651 5651 5651 5651 5650 5650 5650 5650 5650 5649 5649 5649 5649 5649 5649 5649 5649 5649 5649 5649 5649 5649 5649 5649 5649 5649 5649 5649 5649 5649 5649 5649 5650 5650 5650 5650 5650 5650 5650 5651 5651 5651 5651 5651 5651 5651
5653 5653 5653 5653 5653 5653 5653 5653 5653 5653 5653 5653 5653 5653 5653 5653 5653 5653 5654 5653 5653 5653 5653 5653 5653 5652 5652 5652 5652 5652 5652 5652 5652 5652 5652 5652 5652 5652 5652 5652 5652 5651 5651 5651 5651 5651 5651 5650 5650 5650 5650 5650 5650 5649 5649 5649 5649 5649 5649 5649 5649 5649 5649 5649 5649 5649 5649 5649 5649 5649 5649 5649 5649 5649 5649 5649 5649 5650 5650 5650 5650 5650 5650 5650 5651 5651
5653 5653 5653 5653 5653 5652 5652 5652 5652 5652 5652 5652 5652 5652 5652 5653 5653 5653 5653 5653 5653 5653 5653 5653 5652 5652 5652 5652 5652 5652 5651 5652 5652 5652 5652 5652 5652 5652 5652 5652 5652 5652 5651 5651 5651 5651 5651 5651 5651 5651 5650 5650 5650 5650 5650 5649 5649 5649 5649 5649 5649 5649 5649 5649 5649 5649 5649 5649 5649 5649 5649 5649 5649 5649 5649 5649 5649 5649 5649 5649 5650 5650 5650 5650 5650 5650
5651 5652 5652 5652 5652 5652 5652 5651 5651 5651 5651 5651 5651 5651 5652 5652 5652 5652 5652 5652 5653 5653 5653 5652 5652 5652 5652 5652 5652 5651 5651 5652 5652 5651 5651 5652 5652 5652 5652 5652 5652 5652 5651 5651 5651 5651 5651 5651 5651 5651 5651 5651 5650 5650 5650 5650 5649 5649 5649 5649 5649 5648 5648 5648 5648 5648 5648 5648 5649 5649 5649 5649 5649 5649 5649 5649 5649 5649 5649 5649 5649 5649 5649 5649 5649 5649
5650 5650 5651 5651 5651 5651 5651 5651 5651 5651 5651 5651 5651 5651 5651 5651 5651 5651 5651 5651 5652 5652 5652 5652 5652 5652 5652 5652 5651 5651 5652 5652 5651 5651 5651 5652 5652 5652 5652 5652 5652 5652 5651 5651 5651 5651 5651 5651 5651 5651 5651 5651 5650 5650 5650 5650 5649 5649 5649 5648 5648 5648 5648 5648 5648 5648 5648 5648 5648 5648 5648 5648 5648 5648 5648 5648 5648 5648 5648 5648 5648 5648 5648 5648 5648 5648
5649 5649 5650 5650 5650 5650 5650 5650 5650 5650 5650 5650 5650 5650 5650 5650 5650 5651 5651 5651 5651 5651 5651 5651 5651 5651 5651 5651 5651 5651 5652 5651 5651 5651 5651 5651 5652 5652 5652 5652 5652 5652 5652 5651 5651 5651 5651 5651 5651 5650 5650 5650 5650 5650 5650 5649 5649 5649 5649 5648 5648 5648 5648 5647 5647 5647 5647 5647 5647 5647 5647 5647 5647 5647 5647 5647 5647 5647 5647 5648 5648 5648 5648 5648 5648 5648
5648 5648 5648 5649 5649 5649 5649 5649 5649 5649 5649 5649 5649 5649 5649 5650 5650 5650 5650 5650 5650 5650 5650 5650 5651 5651 5651 5651 5651 5651 5651 5651 5651 5651 5651 5651 5652 5652 5652 5652 5652 5652 5652 5651 5651 5651 5651 5651 5651 5650 5650 5650 5650 5650 5649 5649 5649 5649 5648 5648 5648 5648 5647 5647 5647 5647 5647 5646 5646 5646 5646 5646 5646 5646 5646 5646 5646 5646 5646 5647 5647 5647 5647 5647 5647 5647
5647 5647 5648 5648 5648 5648 5648 5648 5648 5648 5648 5648 5648 5648 5649 5649 5649 5649 5649 5649 5649 5649 5649 5649 5650 5650 5650 5651 5651 5651 5651 5651 5651 5651 5651 5651 5651 5652 5652 5652 5652 5652 5652 5651 5651 5651 5651 5651 5651 5651 5650 5650 5650 5649 5649 5649 5649 5648 5648 5648 5648 5648 5648 5647 5647 5647 5646 5646 5646 5646 5646 5645 5645 5645 5645 5645 5645 5645 5646 5646 5646 5646 5646 5646 5646 5646
5646 5646 5647 5647 5647 5647 5648 5648 5648 5648 5648 5648 5648 5648 5648 5648 5648 5648 5648 5648 5648 5648 5649 5649 5649 5649 5649 5650 5650 5650 5651 5651 5651 5651 5651 5651 5651 5651 5652 5652 5652 5652 5652 5652 5651 5651 5651 5651 5651 5651 5650 5650 5650 5649 5649 5649 5649 5648 5648 5648 5648 5648 5648 5647 5647 5646 5646 5646 5646 5645 5645 5645 5645 5645 5645 5645 5645 5645 5645 5645 5645 5645 5645 5645 5645 5645
5644 5645 5645 5646 5646 5646 5647 5647 5647 5647 5647 5647 5647 5647 5647 5648 5648 5648 5648 5648 5648 5648 5648 5648 5648 5648 5649 5649 5649 5650 5650 5650 5650 5650 5651 5651 5651 5651 5651 5651 5651 5651 5651 5651 5651 5651 5651 5651 5651 5651 5650 5650 5650 5650 5650 5649 5649 5649 5648 5648 5648 5648 5647 5647 5647 5646 5646 5646 5645 5645 5645 5644 5644 5644 5644 5644 5644 5644 5644 5644 5644 5644 5644 5644 5644 5644
5643 5643 5644 5644 5645 5645 5645 5646 5646 5646 5646 5646 5646 5646 5646 5647 5647 5647 5647 5647 5647 5647 5647 5647 5648 5648 5648 5648 5648 5649 5649 5649 5650 5650 5650 5650 5650 5651 5651 5651 5651 5651 5651 5651 5651 5651 5651 5651 5650 5650 5650 5650 5650 5650 5650 5650 5649 5649 5648 5648 5648 5647 5647 5647 5647 5646 5646 5646 5645 5645 5644 5644 5644 5643 5643 5643 5643 5643 5643 5643 5643 5643 5643 5643 5643 5643
5641 5642 5643 5643 5643 5644 5644 5644 5644 5645 5645 5645 5645 5645 5645 5646 5646 5646 5646 5646 5646 5646 5646 5646 5647 5647 5647 5648 5648 5648 5648 5649 5649 5649 5649 5650 5650 5650 5650 5650 5650 5650 5650 5650 5650 5650 5650 5650 5650 5650 5650 5650 5650 5650 5649 5649 5649 5649 5648 5648 5648 5647 5647 5646 5646 5646 5645 5645 5645 5644 5644 5643 5643 5643 5643 5643 5642 5642 5642 5642 5642 5642 5641 5641 5641 5641
5640 5640 5641 5642 5642 5642 5643 5643 5643 5643 5643 5644 5644 5644 5644 5645 5645 5645 5645 5645 5645 5645 5645 5646 5646 5646 5646 5647 5647 5647 5648 5648 5648 5648 5649 5649 5649 5649 5649 5649 5649 5649 5649 5649 5649 5649 5649 5649 5649 5649 5649 5649 5649 5649 5649 5649 5649 5648 5648 5648 5647 5647 5646 5646 5645 5645 5645 5644 5644 5644 5643 5643 5643 5642 5642 5642 5641 5641 5641 5641 5641 5640 5640 5640 5640 5640
5638 5639 5639 5640 5640 5641 5641 5642 5642 5642 5643 5643 5643 5643 5643 5644 5644 5644 5644 5644 5644 5644 5644 5645 5645 5645 5646 5646 5646 5646 5647 5647 5647 5647 5648 5648 5648 5648 5648 5648 5648 5649 5649 5649 5649 5649 5649 5649 5649 5648 5648 5648 5648 5648 5648 5648 5648 5648 5647 5647 5647 5646 5645 5645 5645 5644 5644 5643 5643 5643 5643 5642 5642 5642 5641 5641 5640 5640 5640 5640 5639 5639 5639 5639 5639 5638
5637 5637 5638 5638 5639 5639 5640 5640 5641 5641 5641 5642 5642 5642 5642 5643 5643 5643 5643 5643 5643 5643 5644 5644 5644 5644 5645 5645 5645 5645 5645 5646 5646 5646 5647 5647 5647 5647 5648 5648 5648 5648 5648 5648 5648 5648 5648 5648 5648 5648 5648 5648 5648 5647 5647 5647 5647 5647 5646 5646 5646 5645 5645 5644 5644 5643 5643 5643 5642 5642 5642 5641 5641 5641 5640 5640 5639 5639 5639 5638 5638 5638 5638 5638 5637 5637
5635 5635 5636 5637 5637 5638 5638 5639 5639 5640 5640 5641 5641 5641 5641 5641 5642 5642 5642 5643 5643 5643 5643 5643 5643 5643 5644 5644 5644 5644 5644 5644 5645 5645 5645 5646 5646 5646 5646 5647 5647 5647 5647 5647 5647 5647 5647 5647 5647 5647 5647 5647 5646 5646 5646 5646 5645 5645 5645 5645 5644 5644 5644 5643 5643 5643 5642 5642 5641 5641 5641 5640 5640 5639 5639 5639 5638 5638 5638 5638 5637 5637 5637 5636 5636 5636
5633 5634 5634 5635 5636 5636 5637 5638 5638 5638 5639 5639 5639 5640 5640 5640 5640 5641 5641 5641 5642 5642 5642 5642 5642 5642 5643 5643 5643 5643 5643 5643 5643 5644 5644 5644 5645 5645 5645 5645 5645 5646 5646 5646 5646 5646 5646 5646 5646 5646 5645 5645 5645 5645 5645 5644 5644 5644 5644 5643 5643 5643 5643 5642 5642 5641 5641 5641 5640 5640 5639 5639 5639 5638 5638 5638 5638 5637 5637 5636 5636 5636 5635 5635 5635 5634
5631 5632 5633 5633 5634 5635 5635 5636 5636 5637 5637 5638 5638 5638 5639 5639 5639 5640 5640 5640 5641 5641 5641 5641 5641 5641 5641 5642 5642 5642 5643 5643 5643 5643 5643 5643 5643 5643 5644 5644 5644 5644 5644 5644 5644 5645 5645 5645 5645 5645 5644 5644 5644 5644 5644 5643 5643 5643 5643 5642 5642 5641 5641 5641 5640 5640 5639 5639 5639 5638 5638 5638 5638 5637 5637 5637 5636 5636 5636 5635 5635 5634 5634 5634 5633 5633
5629 5630 5631 5632 5633 5633 5634 5634 5635 5635 5636 5636 5637 5637 5637 5638 5638 5638 5639 5639 5639 5640 5640 5640 5640 5640 5640 5640 5641 5641 5641 5642 5642 5642 5642 5642 5642 5642 5643 5643 5643 5643 5643 5643 5643 5643 5643 5643 5643 5643 5643 5643 5643 5643 5642 5642 5642 5641 5641 5641 5640 5640 5639 5639 5639 5638 5638 5638 5637 5637 5637 5636 5636 5636 5636 5635 5635 5634 5634 5634 5633 5633 5633 5632 5632 5632
5628 5629 5629 5630 5631 5632 5632 5633 5633 5634 5634 5635 5635 5636 5636 5636 5637 5637 5638 5638 5638 5638 5639 5639 5639 5639 5639 5639 5640 5640 5640 5640 5641 5641 5641 5641 5641 5641 5641 5641 5642 5642 5642 5642 5642 5642 5642 5642 5642 5642 5642 5642 5641 5641 5641 5641 5640 5640 5639 5639 5639 5638 5638 5638 5637 5637 5636 5636 5636 5635 5635 5635 5635 5634 5634 5634 5633 5633 5633 5632 5632 5631 5631 5631 5630 5630
5626 5627 5628 5628 5629 5630 5630 5631 5632 5632 5633 5633 5634 5634 5634 5635 5635 5636 5636 5637 5637 5637 5638 5638 5638 5638 5638 5638 5638 5639 5639 5639 5639 5640 5640 5640 5640 5640 5640 5640 5640 5641 5641 5641 5641 5641 5641 5641 5641 5640 5640 5640 5640 5640 5639 5639 5639 5638 5638 5638 5637 5637 5637 5636 5636 5635 5635 5634 5634 5634 5633 5633 5633 5633 5632 5632 5632 5631 5631 5630 5630 5630 5629 5629 5628 5628
5624 5625 5625 5626 5627 5628 5628 5629 5630 5631 5631 5632 5632 5633 5633 5633 5634 5634 5635 5635 5635 5636 5636 5636 5636 5636 5636 5637 5637 5637 5638 5638 5638 5638 5638 5638 5639 5639 5639 5639 5639 5639 5640 5640 5640 5640 5640 5640 5639 5639 5639 5638 5638 5638 5638 5638 5637 5637 5636 5636 5636 5635 5635 5635 5634 5634 5633 5633 5633 5632 5632 5631 5631 5631 5630 5630 5630 5629 5629 5629 5628 5628 5628 5627 5627 5627
5622 5623 5623 5624 5625 5626 5627 5628 5628 5629 5629 5630 5631 5631 5632 5632 5633 5633 5633 5633 5634 5634 5635 5635 5635 5635 5635 5635 5635 5636 5636 5636 5637 5637 5637 5637 5637 5638 5638 5638 5638 5638 5638 5638 5638 5638 5638 5638 5638 5638 5638 5637 5637 5637 5636 5636 5636 5636 5635 5635 5634 5634 5633 5633 5633 5632 5632 5631 5631 5630 5630 5630 5629 5629 5629 5628 5628 5628 5627 5627 5627 5626 5626 5626 5625 5625